Volver al catálogo

ESCAPADE BLUE

unknownCienciaHCO
NORAD 66451·PAYLOAD·🇺🇸 United States

Lanzado Nov 13, 2025 desde Cape Canaveral Space Force Station

Loading…

TLE

ObsoletoSource: Space-Track

Época: Nov 13, 2025, 21:21 UTC

1 66451U 25260A   25317.89009259  .00000000  00000-0  00000+0 0  9996
2 66451  29.5791 179.7445 9967950 180.3280   0.0007  0.00296241    13

Sigue ESCAPADE BLUE en tiempo real con AllMySat

Download on the App Store